This is the latest recevied weather packets stored in our database for station/object SP3VBV-2. If no packets are shown the sender has not sent any weather packets the latest 10 day(s).
| Time | Temp. | Humidity | Pressure | Rain* | Wind** | Luminosity | Snow |
|---|---|---|---|---|---|---|---|
| 1777698108 | 6.67° C | 10% | - | - | - | - | - |
| 1777697508 | 6.67° C | 10% | - | - | - | - | - |
| 1777696908 | 6.11° C | 10% | - | - | - | - | - |
| 1777696308 | 5.56° C | 99% | 1024.6 hPa | - | - | - | - |
| 1777695116 | 5° C | 10% | - | - | - | - | - |
| 1777693321 | 5° C | 98% | 1024.5 hPa | - | - | - | - |
| 1777693307 | 5.56° C | 97% | 1024.5 hPa | - | - | - | - |
| 1777692707 | 5.56° C | 96% | 1024.5 hPa | - | - | - | - |
| 1777692107 | 5.56° C | 98% | 1024.4 hPa | - | - | - | - |
| 1777691507 | 5.56° C | 93% | 1024.6 hPa | - | - | - | - |
| 1777690940 | 6.67° C | 92% | 1024.4 hPa | - | - | - | - |
| 1777690307 | 6.11° C | 95% | 1024.4 hPa | - | - | - | - |
| 1777689707 | 5.56° C | 98% | 1024.5 hPa | - | - | - | - |
| 1777689107 | 5° C | 99% | 1024.6 hPa | - | - | - | - |
| 1777688507 | 5.56° C | 98% | 1024.4 hPa | - | - | - | - |
| 1777687907 | 5.56° C | 93% | 1024.5 hPa | - | - | - | - |
| 1777687307 | 6.11° C | 94% | 1024.4 hPa | - | - | - | - |
| 1777686707 | 6.11° C | 94% | 1024.4 hPa | - | - | - | - |
| 1777686107 | 6.67° C | 92% | 1024.4 hPa | - | - | - | - |
| 1777685507 | 7.22° C | 91% | 1024.4 hPa | - | - | - | - |
| 1777684307 | 7.22° C | 89% | 1024.3 hPa | - | - | - | - |
| 1777683707 | 7.22° C | 87% | 1024.5 hPa | - | - | - | - |
| 1777683107 | 7.78° C | 83% | 1024.5 hPa | - | - | - | - |
| 1777682507 | 8.33° C | 81% | 1024.4 hPa | - | - | - | - |
| 1777681907 | 7.78° C | 86% | 1024.4 hPa | - | - | - | - |
* Rain since midnight (hover to see other rain measurements)
** Current wind speed in m/s (hover to see current wind gust speed)